Activity Log for Jan, 02 2019

Back to Activity Log Search


Incident Time Nature Address
19F000364 00:04:48 43 DISTURBANCE 6XX TENNESSEE AVE
19F000367 00:08:15 46,96 29XX GOSHEN RD
19F000366 00:12:08 25 PD ACCIDENT 11XX ST MARYS AVE
19F000363 00:12:43 113 SHOTS FIRED 8XX E RUDISILL BLVD
19F000368 00:13:56 44LM 21XX HERITAGE PARK DR
19F000365 00:15:40 27 RECKLESS DRI W RUDISILL BLVD & BROADWAY
19F000369 00:32:44 44LM 29XX E STATE BLVD
19F000370 00:34:23 46 DOMESTIC 28XX S HARRISON ST
19F000371 00:44:31 51JO 31XX W COLISEUM BLVD
19F000372 00:55:08 46 DOMESTIC 17XX WHEELER ST
19F000375 00:59:37 40A AUDIBLE 10XX OSAGE ST
19F000374 01:00:12 99 NARCOTICS 55XX COVENTRY LN
19F000373 01:00:41 48 SUSPICIOUS LAUREL HURST & LITCHFIELD RD
19F000376 01:17:53 55 FIGHT 25XX LILLIE ST
19F000377 01:27:34 65T SUICIDE THR 49XX OLD MAYSVILLE RD
19F000378 01:29:22 30 TRAFFIC STOP LIMA RD & W WASHINGTON CENTER RD
19F000379 01:31:28 911 HANG UP 39XX ABBOTT ST
19F000380 01:35:43 46 DOMESTIC 36XX ELMCREST DR
19F000381 01:42:42 103 UNWANTED 63XX ALVAREZ DR
19F000382 01:50:47 65T SUICIDE THR 29XX GOSHEN RD
19F000383 02:04:00 43,62 3XX W PETTIT AVE
19F000384 03:05:26 63 CONTACT 71XX DECATUR RD
19F000385 03:05:55 15 ASSIST 19XX BROADWAY
19F000387 03:08:56 44LM 26XX ETHEL AVE
19F000386 03:14:05 40A AUDIBLE 15XX GOSHEN AVE UNIT D
19F000388 03:16:58 103 UNWANTED 1XX E WASHINGTON BLVD
19F000389 03:25:03 48,36 56XX OLD DOVER BLVD
19F000390 03:42:13 46 DOMESTIC 19XX GREENTREE CT
19F000392 03:56:37 48,36 42XX LYNFIELD DR
19F000393 04:15:20 129 43XX S ANTHONY BLVD
19F000394 04:20:53 63 CONTACT 42XX ARLINGTON AVE
19F000395 04:21:39 44LM 83XX BRIDGEWAY CIR
19F000396 04:52:30 48 SUSPICIOUS 20XX BROADWAY
19F000399 05:00:04 63 CONTACT 21XX EDEN ST
19F000397 05:00:26 40A AUDIBLE 9XX WOODLAND PLAZA RUN
19F000398 05:02:29 14 WARRANT 30XX W COLISEUM BLVD
19F000400 05:14:57 30 TRAFFIC STOP LAKE AVE & N COLISEUM BLVD
19F000401 05:17:31 18 WORK TRAFFIC 34XX ADIRONDACK DR
19F000403 05:27:06 44LM 83XX BRIDGEWAY CIR
19F000402 05:28:07 14 WARRANT 49XX LIMA RD
19F000404 06:24:26 26 PI ACCIDENT 1XX E TILLMAN RD
19F000405 06:28:46 1 MEET XX E MAIN ST
19F000407 06:32:49 16,97 49XX LIMA RD
19F000406 06:34:28 26HS PI HITSKIP 38XX LIMA RD
19F000408 06:39:58 46 DOMESTIC 71XX DECATUR RD
19F000409 06:46:09 43 DISTURBANCE WHALERS CV & BRIDGETOWN RUN
19F000410 07:11:22 40A AUDIBLE 64XX W JEFFERSON BLVD
19F000411 07:14:15 48,36 28XX W SHOAFF RD
19F000412 07:19:37 40A AUDIBLE 57XX S ANTHONY BLVD
19F000413 07:24:16 103 UNWANTED 33XX LAKE AVE
19F000414 07:27:37 30 TRAFFIC STOP ROEBUCK BLVD & ST JOE RD
19F000415 07:40:49 TOW 24XX CASS ST
19F000419 07:59:56 34 TRAFF HAZARD 309XX I 69 SB
19F000418 08:00:16 33,34 18XX BLUFFTON RD
19F000420 08:20:21 48,35 33XX W COLISEUM BLVD
19F000422 08:24:47 EMS 35XX W COLISEUM BLVD
19F000421 08:26:03 129 38XX S CALHOUN ST
19F000423 08:28:38 17 MOTOR CHECK 28XX LAWRENCE AVE
19F000424 08:32:44 70 FIRE 34XX ADIRONDACK DR
19F000426 08:39:00 17 MOTOR CHECK 86XX BLUFFTON RD
19F000425 08:39:23 30 TRAFFIC STOP SPY RUN AVE & E STATE BLVD
19F000427 08:40:49 40A AUDIBLE 8XX S HARRISON ST
19F000428 08:41:21 18 WORK TRAFFIC 21XX FLORIDA DR
19F000429 08:47:02 33J LOCKED OUT E SUPERIOR ST & S CLINTON ST
19F000430 08:51:13 63 CONTACT I 69 AND COLDWATER RD
19F000431 09:01:08 48 SUSPICIOUS 6XX TENNESSEE AVE
19F000432 09:03:01 51 THEFT 12XX LEXINGTON AVE
19F000435 09:03:51 48,35 E RUDISILL BLVD & ROBINWOOD DR
19F000434 09:05:43 51JO 74XX S ANTHONY BLVD
19F000433 09:06:57 51 THEFT BROADWAY & TAYLOR ST
19F000436 09:12:43 108 FOLLOWUP 34XX ADIRONDACK DR
19F000437 09:16:37 37 PARKING VIOL 14XX W FOURTH ST
19F000438 09:18:14 30 TRAFFIC STOP N CLINTON ST & DALGREN AVE
19F000439 09:20:09 46 DOMESTIC 45XX S LAFAYETTE ST
19F000442 09:25:43 37 PARKING VIOL 48XX SPATZ AVE
19F000440 09:34:35 30 TRAFFIC STOP COLDWATER RD & E COOK RD
19F000441 09:41:51 38 LOST/STOLEN 19XX HOBSON RD UNIT 104
19F000443 09:47:03 51,35 4XX SPRING ST
19F000444 09:47:21 30 TRAFFIC STOP COLDWATER RD & E COOK RD
19F000446 09:56:49 40A AUDIBLE 6XX E DEWALD ST
19F000445 09:57:22 46,62 73XX MILL RUN RD
19F000447 10:01:43 30 TRAFFIC STOP COLDWATER RD & SPRINGBROOK RD
19F000450 10:02:35 51 THEFT 3XX W SUPERIOR ST
19F000448 10:08:31 63 CONTACT 6XX E DUPONT RD
19F000451 10:09:28 911 HANG UP 22XX FAIRFIELD AVE
19F000449 10:09:58 30 TRAFFIC STOP TAYLOR ST & FOX AVE
19F000453 10:16:45 911 HANG UP 79XX W JEFFERSON BLVD
19F000455 10:20:38 102 THREATS 27XX MILLBROOK DR
19F000454 10:21:35 48 SUSPICIOUS 18XX NELSON ST
19F000456 10:24:46 40A AUDIBLE 35XX WARSAW ST
19F000457 10:32:49 63 CONTACT 30XX LILLIE ST
19F000458 10:40:03 30 TRAFFIC STOP S LAFAYETTE ST & E SUPERIOR ST
19F000459 10:46:12 23,35 VAND VEH 17XX HOBSON RD
19F000465 10:46:58 102,TX THREATS 67XX S ANTHONY BLVD
19F000460 10:47:05 25HS HIT SKIP COVINGTON RD & SOUTHBEND DR
19F000463 10:51:34 40A AUDIBLE 46XX MILLFORD CT
19F000462 10:53:32 30 TRAFFIC STOP LIMA RD & E FERNHILL AVE
19F000464 10:55:01 41 MAN DOWN 21XX S CALHOUN ST
19F000466 11:04:39 26 PI ACCIDENT 18XX HOWELL ST
19F000469 11:10:33 911 HANG UP 33XX FRUEHAUF DR
19F000467 11:10:37 55 FIGHT 3XX W JEFFERSON BLVD
19F000470 11:11:12 63 CONTACT 20XX S CALHOUN ST
19F000468 11:11:19 17 MOTOR CHECK 90XX FALCONS RUN
19F000471 11:15:50 30 TRAFFIC STOP N CLINTON ST & CONSTANCE AVE
19F000472 11:18:01 129 66XX WINSTED CT
19F000473 11:18:01 30 TRAFFIC STOP CAPITOL AVE & REED ST
19F000474 11:18:29 129 33XX MONTANA DR
19F000475 11:18:52 70 STRUCTURE 34XX ADIRONDACK DR
19F000476 11:21:56 38A LOST/ARTICL 7XX W WASHINGTON CENTER RD
19F000477 11:22:15 30 TRAFFIC STOP LIMA RD & W COLISEUM BLVD
19F000478 11:22:34 30 TRAFFIC STOP WAYNEDALE BLVD & BEATY AVE
19F000479 11:24:14 63 CONTACT ARDMORE AVE & LOWER HUNTINGTON RD
19F000480 11:34:48 41 MAN DOWN 42XX N CLINTON ST
19F000481 11:35:34 70 STRUCTURE 21XX FLORIDA DR
19F000482 11:36:01 1 MEET 11XX E PONTIAC ST
19F000483 11:39:33 25 PD ACCIDENT S HANNA ST & E WASHINGTON BLVD
19F000486 11:47:01 11C CAGE CAR 8XX E COLISEUM BLVD
19F000484 11:48:01 40P PANIC ALARM 18XX E WAYNE ST
19F000485 11:49:05 30 TRAFFIC STOP LIMA RD & ICE WAY
19F000487 11:56:56 25HS HIT SKIP BROADWAY & W WASHINGTON BLVD
19F000488 11:56:58 33 DISABLED VEH COVINGTON RD & HOMESTEAD RD
19F000489 11:58:36 30 TRAFFIC STOP E STATE BLVD & REED RD
19F000490 11:59:47 37 PARKING VIOL 61XX BIRCHDALE DR
19F000491 12:03:14 50JO 19XX ELLEN AVE
19F000493 12:05:26 43 DISTURBANCE 17XX OAKLAND ST
19F000492 12:07:38 1 MEET 104XX COLDWATER RD
19F000494 12:12:50 43 DISTURBANCE 30XX W COLISEUM BLVD
19F000495 12:20:22 1 MEET 64XX W JEFFERSON BLVD
19F000497 12:21:24 64 NOT SEEN 28XX S CALHOUN ST
19F000496 12:22:12 43 DISTURBANCE 30XX LILLIE ST
19F000499 12:24:51 50,ATTEMPTED 39XX N CLINTON ST
19F000498 12:26:07 83 INFO REPORT 8XX THIRD ST
19F000500 12:30:46 83 INFO REPORT 116XX COLDWATER RD
19F000501 12:31:22 37 PARKING VIOL 60XX GATES CT
19F000502 12:34:44 26 PI ACCIDENT I 69 AND ILLINOIS RD
19F000508 12:40:36 63 CONTACT 65XX BAY TREE DR
19F000503 12:40:54 40I INTRUSION 39XX OLD MILL RD
19F000505 12:42:38 51 THEFT 5XX W JEFFERSON BLVD
19F000509 12:46:38 17 MOTOR CHECK 86XX EFFIE DR
19F000506 12:48:39 EMS 61XX ALTHEAN DR
19F000507 12:49:36 103 UNWANTED 33XX N ANTHONY BLVD
19F000511 12:55:37 51 THEFT 59XX ILLINOIS RD
19F000513 12:58:17 1 MEET 41XX CENTRAL DR
19F000512 13:01:02 40A AUDIBLE 37XX HILLEGAS RD
19F000516 13:01:50 51 THEFT 41XX MERCHANT RD
19F000514 13:03:13 46 DOMESTIC 79XX DORSETT DR
19F000515 13:04:25 63 CONTACT 16XX DODGE AVE
19F000522 13:07:29 63 CONTACT 3XX W BERRY ST
19F000531 13:07:36 39 STOLEN VEHIC 26XX CARVER CT
19F000518 13:10:50 51JO 75XX SOUTHTOWN XING
19F000536 13:12:18 23,113 44XX MIRADA DR
19F000519 13:13:56 48 SUSPICIOUS 73XX IDEAL AVE
19F000520 13:14:14 46 DOMESTIC 79XX SERENITY DR
19F000521 13:16:13 129 45XX IMPERIAL PARK DR
19F000540 13:21:30 39 STOLEN VEHIC 12XX E BERRY ST
19F000524 13:22:47 25 PD ACCIDENT 4XX E DUPONT RD
19F000523 13:23:24 30 TRAFFIC STOP RUSSELL AVE & WELLS ST
19F000525 13:23:44 47 REMOVE ITEMS 12XX N HARRISON ST
19F000526 13:28:41 33 DISABLED VEH I 469 AND SR 37
19F000527 13:32:07 48 SUSPICIOUS 29XX W WASHINGTON CENTER RD
19F000541 13:37:10 51,35 XX E MAIN ST
19F000528 13:37:13 51 THEFT 6XX E DUPONT RD
19F000530 13:38:20 25 PD ACCIDENT W COOK RD & INNOVATION BLVD
19F000529 13:38:33 30 TRAFFIC STOP S LAFAYETTE ST & E CREIGHTON AVE
19F000545 13:40:40 17 MOTOR CHECK 25XX TRENTMAN AVE
19F000532 13:45:04 46,96 40XX S MONROE ST
19F000535 13:47:09 23,113 45XX SANFORD LN
19F000537 13:51:50 96 BATTERY 36XX CHEVIOT DR
19F000533 13:53:13 40A AUDIBLE 44XX WINSTON DR
19F000534 13:54:52 43 DISTURBANCE 22XX BEACON ST
19F000539 13:55:43 57 STRONG ARM 14XX GREENE ST
19F000538 13:57:19 33J LOCKED OUT 4XX W PETTIT AVE
19F000544 13:58:14 16,97 62XX COVINGTON RD
19F000542 14:04:22 STRUCTURE FIRE 78XX KNIGHTSWOOD DR
19F000543 14:05:24 43 DISTURBANCE 30XX W COLISEUM BLVD
19F000551 14:07:43 108 FOLLOWUP 31XX ALEXANDER ST
19F000546 14:13:54 30 TRAFFIC STOP W JEFFERSON BLVD & GETZ RD
19F000548 14:16:33 51JO 104XX COLDWATER RD
19F000547 14:18:50 51 THEFT 34XX SHERMAN BLVD
19F000550 14:27:43 25 PD ACCIDENT 313XX I 69 NB
19F000553 14:41:19 102 THREATS 9XX LIBRARY PLAZA
19F000552 14:42:07 48 SUSPICIOUS 17XX APPLE GLEN BLVD
19F000555 14:46:46 46 DOMESTIC SANDPOINT RD & DEFOREST AVE
19F000554 14:46:52 17 MOTOR CHECK 61XX SALISBURY DR
19F000558 14:51:33 16 PICK UP ITEM 104XX COLDWATER RD
19F000556 14:52:03 30 TRAFFIC STOP 18XX BLUFFTON RD
19F000557 14:53:44 48 SUSPICIOUS E STATE BLVD & N COLISEUM BLVD
19F000559 14:57:28 46 DOMESTIC 7XX HIGH ST
19F000560 15:01:18 103 UNWANTED 27XX S LAFAYETTE ST
19F000561 15:02:41 129 42XX OAKHURST DR
19F000564 15:05:16 40A AUDIBLE 71XX CROSSCUT CT
19F000562 15:06:08 30 TRAFFIC STOP BROADWAY & SWINNEY AVE
19F000566 15:06:32 34 TRAFF HAZARD S COLISEUM BLVD AND E WASHINGTON B
19F000563 15:06:36 129 45XX WINDING WAY DR
19F000565 15:11:10 EMS 25XX TRENTMAN AVE
19F000567 15:16:01 108 FOLLOWUP 28XX HOLTON AVE APT 101
19F000568 15:16:47 66V MENTAL VIOL 65XX BRADBURY AVE
19F000591 15:22:07 51 THEFT 7XX TENNESSEE AVE
19F000569 15:23:28 108 FOLLOWUP 6XX RIVERSIDE AVE
19F000570 15:28:41 911 HANG UP 33XX HOAGLAND AVE
19F000571 15:31:21 103 UNWANTED 35XX HARRIS RD
19F000574 15:32:55 48,36 104XX MAYSVILLE RD
19F000572 15:33:22 65A SUICIDE ATT 26XX CREEPING PHLOX CV
19F000575 15:33:26 46 DOMESTIC 61XX BECKER DR
19F000573 15:34:57 3XX E WASHINGTON BLVD
19F000576 15:35:39 25 PD ACCIDENT 63XX LIMA RD
19F000578 15:38:34 25 PD ACCIDENT LIMA RD & WELLS ST
19F000580 15:38:50 47 REMOVE ITEMS 52XX STONEHEDGE BLVD
19F000577 15:38:56 30 TRAFFIC STOP REED ST & OXFORD ST
19F000579 15:40:09 70 STRUCTURE 78XX KNIGHTSWOOD DR
19F000581 15:43:09 39R STOLEN RECO 17XX E LINCOLN HWY
19F000582 15:46:14 25 PD ACCIDENT 28XX E STATE BLVD
19F000584 15:52:20 39U UNAUTHORIZE 9XX E WASHINGTON BLVD
19F000583 15:52:41 26 PI ACCIDENT S THOMAS RD & ILLINOIS RD
19F000585 15:57:35 48 SUSPICIOUS NELSON ST & ZOLLARS AVE
19F000586 16:06:27 25 PD ACCIDENT 70XX ARDMORE AVE
19F000587 16:07:42 30 TRAFFIC STOP LAVERNE AVE & E STATE BLVD
19F000596 16:07:46 46 DOMESTIC 38XX WEISSER PARK AVE
19F000589 16:08:30 17 MOTOR CHECK 18XX GLENLIVET CT
19F000588 16:09:44 30 TRAFFIC STOP MCKINNIE AVE & HOLTON AVE
19F000590 16:14:41 30 TRAFFIC STOP E STATE BLVD & BEACON ST
19F000592 16:16:48 48 SUSPICIOUS 3XX E COLISEUM BLVD
19F000593 16:18:47 EMS 88XX LIMA RD
19F000595 16:21:39 46 DOMESTIC 47XX WELLINGTON DR
19F000597 16:24:29 101 OPEN DOOR 40XX INDIAN HILLS DR
19F000601 16:25:02 63 CONTACT 23XX BOWSER AVE
19F000600 16:25:22 25HS HIT SKIP 2XX E CREIGHTON AVE
19F000599 16:25:27 99 NARCOTICS 70XX BLUFFTON RD
19F000598 16:33:03 73 WALK AWAY 38XX PLYMOUTH RD
19F000602 16:44:09 30 TRAFFIC STOP 18XX BLUFFTON RD
19F000603 16:47:00 30 TRAFFIC STOP BLUFFTON RD & BROADWAY
19F000605 16:49:34 48,36 3XX W HOLLIS LN
19F000604 16:51:07 46 DOMESTIC 20XX HILLSIDE AVE
19F000606 16:52:59 25 PD ACCIDENT 36XX WELLS ST
19F000608 16:58:23 911 HANG UP 57XX S ANTHONY BLVD
19F000609 16:58:54 25 PD ACCIDENT 314XX I 69 NB
19F000607 16:59:10 30 TRAFFIC STOP BLUEFIELD PL & CHERRY CREEK RD
19F000610 17:01:08 51 THEFT 81XX BRIDGEWAY CIR UNIT 3A
19F000611 17:04:09 33,34 S CLINTON ST & E MAIN ST
19F000612 17:08:26 30 TRAFFIC STOP W JEFFERSON BLVD & GETZ RD
19F000613 17:12:13 40 ALARM 40XX OPTION PASS
19F000614 17:14:34 43 DISTURBANCE 38XX BEAVER AVE
19F000615 17:17:11 25 PD ACCIDENT BLUFFTON RD & CHURCH ST
19F000616 17:17:34 25 PD ACCIDENT 313XX I 69 NB
19F000617 17:24:03 51 THEFT 81XX LAKESIDE CT
19F000618 17:26:54 96JO 9XX E COOK RD
19F000619 17:29:13 50 BURGLARY 50XX BOWSER AVE
19F000620 17:31:51 43 DISTURBANCE 58XX LE STEELE BLVD
19F000621 17:35:38 113 SHOTS FIRED 37XX SCHELE AVE
19F000622 17:37:34 113 SHOTS FIRED CRESCENT AVE & VANCE AVE
19F000623 17:39:23 30 TRAFFIC STOP 18XX BLUFFTON RD
19F000625 17:39:54 63 CONTACT 39XX ENOLA CT
19F000624 17:40:44 HARASSMENT 53XX COLDWATER RD
19F000627 17:41:41 96 BATTERY XX E MAIN ST
19F000626 17:44:03 911 HANG UP 74XX HOPE FARM RD
19F000628 17:47:10 51 THEFT 10XX PELHAM DR
19F000632 17:48:08 46 DOMESTIC 70XX BLUFFTON RD
19F000648 17:49:33 63 CONTACT 13XX GARDEN CLUB DR
19F000629 17:50:19 43 DISTURBANCE 6XX FIFTH ST
19F000630 17:52:56 40A AUDIBLE 8XX COUNTRY WOOD PL
19F000631 17:53:34 57 STRONG ARM 16XX LINDENWOOD AVE
19F000633 18:05:34 102,TX THREATS XX E MAIN ST
19F000634 18:07:12 113 SHOTS FIRED 40XX WARSAW ST
19F000638 18:07:29 113 SHOTS FIRED 68XX RIVER HAZE RD
19F000636 18:07:40 47 REMOVE ITEMS 38XX BEAVER AVE
19F000635 18:08:01 30 TRAFFIC STOP BROADWAY & MICHIGAN AVE
19F000637 18:08:58 46,96 69XX HILLSBORO CT
19F000640 18:09:16 1 MEET 15XX MAGNOLIA LN
19F000639 18:13:43 96JO 61XX E STATE BLVD
19F000641 18:15:04 55 FIGHT BAXTER ST & WEISSER PARK AVE
19F000642 18:19:58 43 DISTURBANCE 73XX RIVERTON DR
19F000643 18:27:54 30 TRAFFIC STOP E PETTIT AVE & S CALHOUN ST
19F000644 18:29:44 113 SHOTS FIRED 19XX SHERMAN BLVD
19F000645 18:33:40 46,96 22XX RANDALLIA DR
19F000646 18:38:20 25,86 LAKE AVE & REED RD
19F000658 18:41:56 1 MEET 64XX BLUFFTON RD
19F000647 18:44:30 30 TRAFFIC STOP RIEDMILLER AVE & HALE AVE
19F000649 18:50:07 40 ALARM 15XX BLUFFTON RD
19F000656 18:52:39 50,ATTEMPTED 2XX COUNTRY FOREST DR
19F000651 18:54:20 44LM 7XX W DEWALD ST
19F000650 18:55:24 113 SHOTS FIRED 49XX SMITH ST
19F000652 18:59:56 43 DISTURBANCE 11XX GOSHEN AVE
19F000653 19:02:46 30 TRAFFIC STOP 21XX FOX AVE
19F000654 19:03:02 108 FOLLOWUP 56XX LE STEELE BLVD
19F000655 19:05:21 30 TRAFFIC STOP BROOKLYN AVE & W PACKARD AVE
19F000657 19:07:37 97 FOUND ITEMS XX E MAIN ST
19F000660 19:10:53 30 TRAFFIC STOP 9XX E PETTIT AVE
19F000661 19:12:34 30 TRAFFIC STOP BROADWAY & TAYLOR ST
19F000662 19:14:37 30 TRAFFIC STOP 42XX W JEFFERSON BLVD
19F000663 19:17:09 30 TRAFFIC STOP HOLTON AVE & MCKINNIE AVE
19F000664 19:18:25 63 CONTACT 6XX E SUTTENFIELD AVE
19F000665 19:29:09 66 MENTALLY ILL 33XX THURBER AVE
19F000666 19:37:06 48 SUSPICIOUS MAPLECREST RD & E STATE BLVD
19F000667 19:38:09 37 PARKING VIOL 2XX MABRY CV
19F000672 19:46:36 34 TRAFF HAZARD HOBSON RD & TRIER RD
19F000668 19:46:45 43 DISTURBANCE W JEFFERSON BLVD & COLLEGE ST
19F000669 19:47:13 103 UNWANTED 60XX MEADOWS DR UNIT C
19F000670 19:48:36 40 ALARM 77XX BLUFFTON RD
19F000671 19:51:08 113 SHOTS FIRED PLAZA DR & DREXEL AVE
19F000674 19:51:44 73 WALK AWAY 9XX E STATE BLVD
19F000673 19:51:57 113 SHOTS FIRED 95XX CAMBERWELL DR
19F000675 20:00:07 30 TRAFFIC STOP W JEFFERSON BLVD & LIBERTY MILLS R
19F000676 20:02:28 46 DOMESTIC APPLE GLEN BLVD & ILLINOIS RD
19F000677 20:02:57 14S SERVING WAR 29XX MCKINLEY AVE
19F000679 20:03:07 11C CAGE CAR 14XX APPLE GLEN BLVD
19F000678 20:03:50 14S SERVING WAR 29XX MCKINLEY AVE
19F000680 20:14:39 30 TRAFFIC STOP S ANTHONY BLVD & EMBASSY DR
19F000681 20:26:01 25HS HIT SKIP SHERMAN BLVD & SPRING ST
19F000682 20:27:22 46 DOMESTIC 50XX GAYWOOD DR
19F000683 20:30:37 102,TX THREATS 14XX GROVE DR
19F000684 20:31:24 911 HANG UP 57XX WESTHILLS RD
19F000685 20:33:06 40A AUDIBLE 33XX N CLINTON ST
19F000687 20:40:46 11C CAGE CAR 17XX APPLE GLEN BLVD
19F000686 20:41:23 63 CONTACT 310XX I 69 NB
19F000689 20:50:54 66V MENTAL VIOL 71XX GRAYLING PL
19F000690 20:53:10 43 DISTURBANCE 54XX MCCLELLAN ST
19F000691 20:58:55 40A AUDIBLE 27XX HOBSON RD
19F000692 21:03:01 43 DISTURBANCE E WALLACE ST & S BARR ST
19F000693 21:05:18 911 HANG UP 117XX EAGLE CREEK PASS
19F000694 21:10:40 48 SUSPICIOUS 6XX ARCHER AVE
19F000697 21:17:38 18 WORK TRAFFIC 29XX SIMCOE DR
19F000695 21:18:03 48,36 15XX WELLS ST
19F000696 21:22:57 65A SUICIDE ATT 8XX W WILDWOOD AVE
19F000699 21:28:27 113 SHOTS FIRED 4XX PERRY AVE
19F000698 21:29:52 51 THEFT 53XX COLDWATER RD
19F000702 21:34:00 63 CONTACT 9XX KINNAIRD AVE
19F000700 21:34:03 30 TRAFFIC STOP COVINGTON RD & ARDMORE AVE
19F000701 21:35:17 113 SHOTS FIRED 22XX HOLTON AVE
19F000703 21:38:53 30 TRAFFIC STOP I 469 AND I 69 N INTERCHANGE
19F000704 21:41:50 63 CONTACT 2XX E PETTIT AVE
19F000731 21:42:00 37 PARKING VIOL 24XX POINSETTE DR
19F000705 21:51:52 48,36 104XX MAYSVILLE RD
19F000706 21:53:24 40A AUDIBLE 10XX W COLISEUM BLVD
19F000707 21:55:53 30 TRAFFIC STOP W WASHINGTON BLVD & WEBSTER ST
19F000708 21:58:17 30 TRAFFIC STOP STELLHORN RD & REED RD
19F000710 21:58:50 51 THEFT 22XX DUNKELBERG RD LOT 107
19F000709 22:03:17 43 DISTURBANCE 38XX S CALHOUN ST
19F000711 22:13:45 50IP BURG I/P 99XX OAK TRAIL RD
19F000712 22:14:14 51JO 59XX HESSEN CASSEL RD
19F000714 22:14:48 40A AUDIBLE 33XX INDEPENDENCE DR
19F000713 22:16:13 30 TRAFFIC STOP BEACON ST & E STATE BLVD
19F000724 22:21:22 108 FOLLOWUP 23XX CASS ST
19F000716 22:22:04 911 HANG UP 35XX PLAZA DR
19F000718 22:22:26 48,36 9XX CLAYTON AVE
19F000715 22:24:10 108 FOLLOWUP 40XX AVONDALE DR
19F000717 22:27:23 30 TRAFFIC STOP S ANTHONY BLVD & MCKINNIE AVE
19F000719 22:32:36 40A AUDIBLE 32XX COVINGTON RD
19F000720 22:33:58 46 DOMESTIC 25XX CRESCENT AVE
19F000722 22:37:07 101 OPEN DOOR 36XX PLAZA DR
19F000721 22:38:32 40A AUDIBLE S ANTHONY BLVD & OXFORD ST
19F000723 22:50:01 30 TRAFFIC STOP E STATE BLVD & N ANTHONY BLVD
19F000726 22:59:29 30 TRAFFIC STOP LIMA RD & W DUPONT RD
19F000729 22:59:37 34 TRAFF HAZARD W COLISEUM BLVD & LIMA RD
19F000727 22:59:46 30 TRAFFIC STOP LEXINGTON AVE & S CALHOUN ST
19F000728 22:59:46 65T SUICIDE THR 24XX WAYNEWOOD DR
19F000730 23:07:46 43 DISTURBANCE 12XX SUMMIT ST
19F000732 23:17:08 44 NUISANCE 24XX POINSETTE DR
19F000733 23:17:58 102 THREATS 42XX FOREST CREEK PKWY
19F000734 23:19:49 43 DISTURBANCE E STATE BLVD & SIMCOE DR
19F000735 23:24:20 48,36 2XX E MAPLE GROVE AVE
19F000736 23:24:41 43 DISTURBANCE 32XX ST JOE CENTER RD
19F000737 23:29:17 70 STRUCTURE 29XX SIMCOE DR
19F000738 23:29:17 43 DISTURBANCE 26XX FOREST VALLEY DR
19F000739 23:31:22 44LM 13XX W WASHINGTON BLVD
19F000740 23:31:54 51,35 IP 62XX ST JOE RD APT 303
19F000741 23:35:03 129 60XX BECKER DR
19F000742 23:35:09 129 60XX BECKER DR
19F000743 23:36:32 15 ASSIST WAYNE TRACE & MANFORD ST
19F000744 23:50:37 20 PROBLEM UNK 48XX S ANTHONY BLVD